Tracking 28126 objects as of 1-Oct-2023
HD Live streaming from Space Station
objects crossing your sky now

STARLINK-3260

Track STARLINK-3260 now!
10-day predictions
STARLINK-3260 is classified as:


NORAD ID: 50205
Int'l Code: 2021-125BB
Perigee: 545.8 km
Apogee: 548.0 km
Inclination: 53.2 °
Period: 95.4 minutes
Semi major axis: 6917 km
RCS: Unknown
Launch date: December 18, 2021
Source: United States (US)
Launch site: AIR FORCE WESTERN TEST RANGE (AFWTR)
Your satellite tracking list
Your tracking list is empty




NASA's NSSDC Master Catalog

Two Line Element Set (TLE):
1 50205U 21125BB  23273.67536450  .00000578  00000-0  54390-4 0  9991
2 50205  53.2166 249.0360 0001620  96.2009 263.9168 15.08836076102176
Source of the keplerian elements: AFSPC